sat.trackr.live / text

‹ back to catalog

STARLINK-34431

NORAD 64353 · 2025-126K

PAYLOAD ACTIVE UNKNOWN

§ Identity

Operator
Country
US
Launch date
2025-06-13
Launch site
AFWTR
Launch vehicle
Mass (kg)
RCS (m²)

Purposes: comms

External: N2YO · Heavens-Above · Gunter

§ Orbital elements

Epoch: 2026-05-24T20:37:13.308384Z

Period
96.10 min
Inclination
70.0024°
Eccentricity
0.0003148
Mean motion
14.98399491 rev/d
Perigee alt
569.7 km
Apogee alt
574.0 km
Semi-major
6,950.0 km
B*
2.7412e-3
RAAN
202.3124°
Arg perigee
345.5216°
Mean anomaly
14.5852°
Rev number
5,209

§ Raw data

STARLINK-344311 64353U 25126K   26144.85918181  .00032827  00000+0  27412-2 0  99942 64353  70.0024 202.3124 0003148 345.5216  14.5852 14.98399491 52090

JSON: /api/v1/satellites/64353 · /tle

For live sub-satellite position, see the globe view (requires WebGL).

§ Visibility from observer

Set your observer location to see the next 7 days of passes ≥ 10°. The values pass through the URL so the page stays shareable.

No JS? Fill the form by hand. The geolocation button needs JavaScript.